Time,TemperatureF,DewpointF,PressureIn,WindDirection,WindDirectionDegrees,WindSpeedMPH,WindSpeedGustMPH,Humidity,HourlyPrecipIn,Conditions,Clouds,dailyrainin,SolarRadiationWatts/m^2,SoftwareType,DateUTC
2013-04-05 00:00:00,40.5,26.5,29.78,SE,140,4.0,4.0,57,0.00,,,0.00,0,WeatherCatV1.12B45,2013-04-05 04:00:00,
2013-04-05 00:01:00,40.4,26.4,29.78,SSE,149,4.0,4.0,57,0.00,,,0.00,0,WeatherCatV1.12B45,2013-04-05 04:01:00,
2013-04-05 00:03:00,40.4,26.4,29.78,SSE,167,0.0,4.0,57,0.00,,,0.00,0,WeatherCatV1.12B45,2013-04-05 04:03:00,
2013-04-05 00:06:00,40.3,26.3,29.78,West,273,1.0,2.0,57,0.00,,,0.00,0,WeatherCatV1.12B45,2013-04-05 04:06:00,
2013-04-05 00:11:00,40.2,26.6,29.78,SSE,163,1.0,4.0,58,0.00,,,0.00,0,WeatherCatV1.12B45,2013-04-05 04:11:00,
2013-04-05 00:16:00,40.0,26.4,29.78,South,169,1.0,2.0,58,0.00,,,0.00,0,WeatherCatV1.12B45,2013-04-05 04:16:00,
2013-04-05 00:21:00,39.9,26.8,29.78,SSE,151,0.0,5.0,59,0.00,,,0.00,0,WeatherCatV1.12B45,2013-04-05 04:21:00,
2013-04-05 00:26:00,39.7,26.6,29.78,SSE,157,2.0,2.0,59,0.00,,,0.00,0,WeatherCatV1.12B45,2013-04-05 04:26:00,
2013-04-05 00:31:00,39.6,26.9,29.77,SSE,168,0.0,2.0,60,0.00,,,0.00,0,WeatherCatV1.12B45,2013-04-05 04:31:00,
2013-04-05 00:36:00,39.5,26.8,29.77,South,180,0.0,4.0,60,0.00,,,0.00,0,WeatherCatV1.12B45,2013-04-05 04:36:00,
2013-04-05 00:41:00,39.4,26.7,29.77,SSE,161,1.0,4.0,60,0.00,,,0.00,0,WeatherCatV1.12B45,2013-04-05 04:41:00,
2013-04-05 00:46:00,39.3,27.0,29.77,SSE,152,0.0,7.0,61,0.00,,,0.00,0,WeatherCatV1.12B45,2013-04-05 04:46:00,
2013-04-05 00:51:00,39.3,27.0,29.77,SSE,161,0.0,4.0,61,0.00,,,0.00,0,WeatherCatV1.12B45,2013-04-05 04:51:00,
2013-04-05 00:56:00,39.2,26.9,29.76,SW,232,0.0,11.0,61,0.00,,,0.00,0,WeatherCatV1.12B45,2013-04-05 04:56:00,
2013-04-05 01:01:00,39.2,27.3,29.76,SE,145,3.0,7.0,62,0.00,,,0.00,0,WeatherCatV1.12B45,2013-04-05 05:01:00,
2013-04-05 01:06:00,39.1,27.2,29.75,SSE,150,0.0,3.0,62,0.00,,,0.00,0,WeatherCatV1.12B45,2013-04-05 05:06:00,
2013-04-05 01:11:00,39.0,27.1,29.75,SSE,163,2.0,3.0,62,0.00,,,0.00,0,WeatherCatV1.12B45,2013-04-05 05:11:00,
2013-04-05 01:16:00,38.9,27.4,29.75,South,187,4.0,4.0,63,0.00,,,0.00,0,WeatherCatV1.12B45,2013-04-05 05:16:00,
2013-04-05 01:21:00,38.9,27.4,29.75,SSE,161,0.0,4.0,63,0.00,,,0.00,0,WeatherCatV1.12B45,2013-04-05 05:21:00,
2013-04-05 01:26:00,38.8,27.7,29.75,SW,223,1.0,2.0,64,0.00,,,0.00,0,WeatherCatV1.12B45,2013-04-05 05:26:00,
2013-04-05 01:31:00,38.7,27.6,29.75,South,182,1.0,4.0,64,0.00,,,0.00,0,WeatherCatV1.12B45,2013-04-05 05:31:00,
2013-04-05 01:36:00,38.6,27.9,29.75,SSE,163,0.0,11.0,65,0.00,,,0.00,0,WeatherCatV1.12B45,2013-04-05 05:36:00,
2013-04-05 01:41:00,38.5,27.8,29.74,NNE,27,1.0,2.0,65,0.00,,,0.00,0,WeatherCatV1.12B45,2013-04-05 05:41:00,
2013-04-05 01:46:00,38.4,28.0,29.74,South,171,5.0,10.0,66,0.00,,,0.00,0,WeatherCatV1.12B45,2013-04-05 05:46:00,
2013-04-05 01:51:00,38.3,28.0,29.74,NW,319,1.0,3.0,66,0.00,,,0.00,0,WeatherCatV1.12B45,2013-04-05 05:51:00,
2013-04-05 01:56:00,38.3,28.3,29.74,SSE,159,0.0,6.0,67,0.00,,,0.00,0,WeatherCatV1.12B45,2013-04-05 05:56:00,
2013-04-05 02:01:00,38.2,28.2,29.74,South,178,1.0,7.0,67,0.00,,,0.00,0,WeatherCatV1.12B45,2013-04-05 06:01:00,
2013-04-05 02:06:00,38.1,28.1,29.73,West,273,0.0,4.0,67,0.00,,,0.00,0,WeatherCatV1.12B45,2013-04-05 06:06:00,
2013-04-05 02:11:00,38.1,28.1,29.73,South,175,1.0,3.0,67,0.00,,,0.00,0,WeatherCatV1.12B45,2013-04-05 06:11:00,
2013-04-05 02:16:00,38.0,28.4,29.73,SSE,155,0.0,3.0,68,0.00,,,0.00,0,WeatherCatV1.12B45,2013-04-05 06:16:00,
2013-04-05 02:21:00,37.9,28.3,29.73,South,172,0.0,12.0,68,0.00,,,0.00,0,WeatherCatV1.12B45,2013-04-05 06:21:00,
2013-04-05 02:26:00,37.9,28.7,29.73,South,173,1.0,6.0,69,0.00,,,0.00,0,WeatherCatV1.12B45,2013-04-05 06:26:00,
2013-04-05 02:31:00,37.9,28.7,29.72,South,180,2.0,7.0,69,0.00,,,0.00,0,WeatherCatV1.12B45,2013-04-05 06:31:00,
2013-04-05 02:36:00,37.8,28.6,29.72,SSE,164,0.0,6.0,69,0.00,,,0.00,0,WeatherCatV1.12B45,2013-04-05 06:36:00,
2013-04-05 02:41:00,37.8,28.6,29.72,SE,146,0.0,3.0,69,0.00,,,0.00,0,WeatherCatV1.12B45,2013-04-05 06:41:00,
2013-04-05 02:46:00,37.7,28.5,29.72,SSE,156,0.0,5.0,69,0.00,,,0.00,0,WeatherCatV1.12B45,2013-04-05 06:46:00,
2013-04-05 02:51:00,37.7,28.5,29.71,SSE,157,0.0,3.0,69,0.00,,,0.00,0,WeatherCatV1.12B45,2013-04-05 06:51:00,
2013-04-05 02:56:00,37.7,28.5,29.71,South,171,1.0,3.0,69,0.00,,,0.00,0,WeatherCatV1.12B45,2013-04-05 06:56:00,
2013-04-05 03:01:00,37.6,28.4,29.72,SE,142,3.0,9.0,69,0.00,,,0.00,0,WeatherCatV1.12B45,2013-04-05 07:01:00,
2013-04-05 03:06:00,37.6,28.4,29.71,SSE,147,4.0,10.0,69,0.00,,,0.00,0,WeatherCatV1.12B45,2013-04-05 07:06:00,
2013-04-05 03:11:00,37.6,28.4,29.71,SE,141,0.0,3.0,69,0.00,,,0.00,0,WeatherCatV1.12B45,2013-04-05 07:11:00,
2013-04-05 03:16:00,37.6,28.4,29.71,SSE,161,0.0,7.0,69,0.00,,,0.00,0,WeatherCatV1.12B45,2013-04-05 07:16:00,
2013-04-05 03:21:00,37.5,28.3,29.71,SSE,162,0.0,4.0,69,0.00,,,0.00,0,WeatherCatV1.12B45,2013-04-05 07:21:00,
2013-04-05 03:26:00,37.5,28.6,29.70,SSE,151,1.0,3.0,70,0.00,,,0.00,0,WeatherCatV1.12B45,2013-04-05 07:26:00,
2013-04-05 03:31:00,37.5,28.6,29.70,SSE,165,1.0,6.0,70,0.00,,,0.00,0,WeatherCatV1.12B45,2013-04-05 07:31:00,
2013-04-05 03:36:00,37.4,28.2,29.70,South,171,2.0,2.0,69,0.00,,,0.00,0,WeatherCatV1.12B45,2013-04-05 07:36:00,
2013-04-05 03:41:00,37.4,28.5,29.69,SSE,161,0.0,2.0,70,0.00,,,0.00,0,WeatherCatV1.12B45,2013-04-05 07:41:00,
2013-04-05 03:46:00,37.3,28.4,29.69,SE,142,0.0,3.0,70,0.00,,,0.00,0,WeatherCatV1.12B45,2013-04-05 07:46:00,
2013-04-05 03:51:00,37.2,28.3,29.69,SE,141,2.0,2.0,70,0.00,,,0.00,0,WeatherCatV1.12B45,2013-04-05 07:51:00,
2013-04-05 03:56:00,37.2,28.3,29.69,NW,320,1.0,3.0,70,0.00,,,0.00,0,WeatherCatV1.12B45,2013-04-05 07:56:00,
2013-04-05 04:01:00,37.2,28.3,29.69,SSE,156,0.0,2.0,70,0.00,,,0.00,0,WeatherCatV1.12B45,2013-04-05 08:01:00,
2013-04-05 04:06:00,37.1,28.2,29.69,SSE,168,0.0,3.0,70,0.00,,,0.00,0,WeatherCatV1.12B45,2013-04-05 08:06:00,
2013-04-05 04:11:00,37.1,28.2,29.68,SSE,163,0.0,1.0,70,0.00,,,0.00,0,WeatherCatV1.12B45,2013-04-05 08:11:00,
2013-04-05 04:16:00,37.1,28.2,29.68,SSE,155,0.0,1.0,70,0.00,,,0.00,0,WeatherCatV1.12B45,2013-04-05 08:16:00,
2013-04-05 04:21:00,37.1,28.2,29.68,South,174,2.0,6.0,70,0.00,,,0.00,0,WeatherCatV1.12B45,2013-04-05 08:21:00,
2013-04-05 04:26:00,37.1,28.2,29.68,NW,307,4.0,4.0,70,0.00,,,0.00,0,WeatherCatV1.12B45,2013-04-05 08:26:00,
2013-04-05 04:31:00,37.1,28.2,29.68,SSE,151,1.0,1.0,70,0.00,,,0.00,0,WeatherCatV1.12B45,2013-04-05 08:31:00,
2013-04-05 04:36:00,37.1,28.2,29.68,South,169,0.0,1.0,70,0.00,,,0.00,0,WeatherCatV1.12B45,2013-04-05 08:36:00,
2013-04-05 04:41:00,37.1,28.2,29.68,South,171,0.0,4.0,70,0.00,,,0.00,0,WeatherCatV1.12B45,2013-04-05 08:41:00,
2013-04-05 04:46:00,37.1,28.6,29.68,SSE,163,0.0,2.0,71,0.00,,,0.00,0,WeatherCatV1.12B45,2013-04-05 08:46:00,
2013-04-05 04:51:00,37.1,28.2,29.68,South,178,0.0,0.0,70,0.00,,,0.00,0,WeatherCatV1.12B45,2013-04-05 08:51:00,
2013-04-05 04:56:00,37.1,28.2,29.68,South,187,0.0,1.0,70,0.00,,,0.00,0,WeatherCatV1.12B45,2013-04-05 08:56:00,
2013-04-05 05:01:00,37.1,28.2,29.68,South,188,0.0,1.0,70,0.00,,,0.00,0,WeatherCatV1.12B45,2013-04-05 09:01:00,
2013-04-05 05:06:00,37.1,28.2,29.68,ENE,71,0.0,1.0,70,0.00,,,0.00,0,WeatherCatV1.12B45,2013-04-05 09:06:00,
2013-04-05 05:11:00,37.1,28.2,29.68,SSE,163,1.0,2.0,70,0.00,,,0.00,0,WeatherCatV1.12B45,2013-04-05 09:11:00,
2013-04-05 05:16:00,37.0,28.1,29.67,SE,128,3.0,3.0,70,0.00,,,0.00,0,WeatherCatV1.12B45,2013-04-05 09:16:00,
2013-04-05 05:21:00,37.0,28.1,29.67,SSE,165,0.0,3.0,70,0.00,,,0.00,0,WeatherCatV1.12B45,2013-04-05 09:21:00,
2013-04-05 05:26:00,37.0,28.1,29.67,SSE,167,1.0,6.0,70,0.00,,,0.00,0,WeatherCatV1.12B45,2013-04-05 09:26:00,
2013-04-05 05:31:00,37.0,28.1,29.67,SSE,163,4.0,4.0,70,0.00,,,0.00,0,WeatherCatV1.12B45,2013-04-05 09:31:00,
2013-04-05 05:36:00,37.0,28.1,29.67,SSE,167,0.0,1.0,70,0.00,,,0.00,0,WeatherCatV1.12B45,2013-04-05 09:36:00,
2013-04-05 05:41:00,37.0,28.1,29.67,SSE,166,0.0,1.0,70,0.00,,,0.00,0,WeatherCatV1.12B45,2013-04-05 09:41:00,
2013-04-05 05:46:00,37.0,28.1,29.66,SSE,167,0.0,2.0,70,0.00,,,0.00,0,WeatherCatV1.12B45,2013-04-05 09:46:00,
2013-04-05 05:51:00,36.9,28.0,29.66,South,171,0.0,3.0,70,0.00,,,0.00,0,WeatherCatV1.12B45,2013-04-05 09:51:00,
2013-04-05 05:56:00,36.9,28.0,29.66,WSW,244,0.0,1.0,70,0.00,,,0.00,0,WeatherCatV1.12B45,2013-04-05 09:56:00,
2013-04-05 06:01:00,36.9,28.0,29.66,SSW,202,0.0,1.0,70,0.00,,,0.00,0,WeatherCatV1.12B45,2013-04-05 10:01:00,
2013-04-05 06:06:00,36.9,28.0,29.66,SSE,165,1.0,2.0,70,0.00,,,0.00,0,WeatherCatV1.12B45,2013-04-05 10:06:00,
2013-04-05 06:11:00,36.9,28.0,29.66,SE,144,2.0,4.0,70,0.00,,,0.00,0,WeatherCatV1.12B45,2013-04-05 10:11:00,
2013-04-05 06:16:00,36.9,27.7,29.65,SSE,167,1.0,4.0,69,0.00,,,0.00,0,WeatherCatV1.12B45,2013-04-05 10:16:00,
2013-04-05 06:21:00,37.0,27.8,29.65,SSE,150,1.0,1.0,69,0.00,,,0.00,0,WeatherCatV1.12B45,2013-04-05 10:21:00,
2013-04-05 06:26:00,37.1,27.9,29.65,SSE,168,0.0,2.0,69,0.00,,,0.00,0,WeatherCatV1.12B45,2013-04-05 10:26:00,
2013-04-05 06:31:00,37.2,28.0,29.65,SE,146,0.0,4.0,69,0.00,,,0.00,0,WeatherCatV1.12B45,2013-04-05 10:31:00,
2013-04-05 06:36:00,37.3,28.1,29.65,SSE,167,5.0,8.0,69,0.00,,,0.00,7,WeatherCatV1.12B45,2013-04-05 10:36:00,
2013-04-05 06:41:00,37.4,27.8,29.65,SSE,148,0.0,4.0,68,0.00,,,0.00,9,WeatherCatV1.12B45,2013-04-05 10:41:00,
2013-04-05 06:46:00,37.5,27.9,29.65,WNW,296,3.0,5.0,68,0.00,,,0.00,12,WeatherCatV1.12B45,2013-04-05 10:46:00,
2013-04-05 06:51:00,37.7,28.1,29.65,SSE,159,2.0,2.0,68,0.00,,,0.00,12,WeatherCatV1.12B45,2013-04-05 10:51:00,
2013-04-05 06:56:00,37.8,27.8,29.66,South,170,1.0,1.0,67,0.00,,,0.00,14,WeatherCatV1.12B45,2013-04-05 10:56:00,
2013-04-05 07:01:00,37.9,27.9,29.66,WNW,288,0.0,3.0,67,0.00,,,0.00,18,WeatherCatV1.12B45,2013-04-05 11:01:00,
2013-04-05 07:06:00,38.0,28.0,29.66,SSE,148,0.0,2.0,67,0.00,,,0.00,18,WeatherCatV1.12B45,2013-04-05 11:06:00,
2013-04-05 07:11:00,38.1,28.1,29.66,WNW,298,0.0,3.0,67,0.00,,,0.00,21,WeatherCatV1.12B45,2013-04-05 11:11:00,
2013-04-05 07:16:00,38.2,28.2,29.66,WNW,294,5.0,5.0,67,0.00,,,0.00,28,WeatherCatV1.12B45,2013-04-05 11:16:00,
2013-04-05 07:21:00,38.3,28.3,29.66,WSW,256,0.0,1.0,67,0.00,,,0.00,40,WeatherCatV1.12B45,2013-04-05 11:21:00,
2013-04-05 07:26:00,38.4,28.4,29.66,SE,134,0.0,2.0,67,0.00,,,0.00,32,WeatherCatV1.12B45,2013-04-05 11:26:00,
2013-04-05 07:31:00,38.6,28.6,29.66,WSW,251,0.0,2.0,67,0.00,,,0.00,39,WeatherCatV1.12B45,2013-04-05 11:31:00,
2013-04-05 07:36:00,38.7,28.7,29.66,NW,309,0.0,1.0,67,0.00,,,0.00,53,WeatherCatV1.12B45,2013-04-05 11:36:00,
2013-04-05 07:41:00,38.9,28.9,29.66,SSW,213,0.0,1.0,67,0.00,,,0.00,53,WeatherCatV1.12B45,2013-04-05 11:41:00,
2013-04-05 07:46:00,39.0,28.6,29.65,SE,140,5.0,5.0,66,0.00,,,0.00,56,WeatherCatV1.12B45,2013-04-05 11:46:00,
2013-04-05 07:51:00,39.1,28.7,29.65,SSE,161,0.0,0.0,66,0.00,,,0.00,53,WeatherCatV1.12B45,2013-04-05 11:51:00,
2013-04-05 07:56:00,39.2,28.8,29.65,SW,220,0.0,6.0,66,0.00,,,0.00,56,WeatherCatV1.12B45,2013-04-05 11:56:00,
2013-04-05 08:01:00,39.4,29.0,29.65,South,170,2.0,2.0,66,0.00,,,0.00,63,WeatherCatV1.12B45,2013-04-05 12:01:00,
2013-04-05 08:06:00,39.5,29.1,29.65,South,187,0.0,1.0,66,0.00,,,0.00,79,WeatherCatV1.12B45,2013-04-05 12:06:00,
2013-04-05 08:11:00,39.7,29.3,29.65,SSE,163,0.0,4.0,66,0.00,,,0.00,100,WeatherCatV1.12B45,2013-04-05 12:11:00,
2013-04-05 08:16:00,39.8,29.4,29.64,SSE,164,5.0,6.0,66,0.00,,,0.00,100,WeatherCatV1.12B45,2013-04-05 12:16:00,
2013-04-05 08:21:00,40.0,29.6,29.64,SE,146,0.0,6.0,66,0.00,,,0.00,102,WeatherCatV1.12B45,2013-04-05 12:21:00,
2013-04-05 08:26:00,40.2,29.8,29.64,NNE,28,2.0,3.0,66,0.00,,,0.00,109,WeatherCatV1.12B45,2013-04-05 12:26:00,
2013-04-05 08:31:00,40.4,29.6,29.63,WNW,299,1.0,3.0,65,0.00,,,0.00,105,WeatherCatV1.12B45,2013-04-05 12:31:00,
2013-04-05 08:36:00,40.6,29.8,29.63,ESE,109,2.0,2.0,65,0.00,,,0.00,121,WeatherCatV1.12B45,2013-04-05 12:36:00,
2013-04-05 08:41:00,40.8,30.0,29.63,SE,125,2.0,2.0,65,0.00,,,0.00,144,WeatherCatV1.12B45,2013-04-05 12:41:00,
2013-04-05 08:46:00,41.0,30.1,29.62,ESE,121,0.0,2.0,65,0.00,,,0.00,149,WeatherCatV1.12B45,2013-04-05 12:46:00,
2013-04-05 08:51:00,41.3,30.4,29.62,ESE,103,0.0,1.0,65,0.00,,,0.00,167,WeatherCatV1.12B45,2013-04-05 12:51:00,
2013-04-05 08:56:00,41.6,30.3,29.62,SSE,167,1.0,2.0,64,0.00,,,0.00,165,WeatherCatV1.12B45,2013-04-05 12:56:00,
2013-04-05 09:01:00,41.8,30.1,29.61,SE,146,1.0,3.0,63,0.00,,,0.00,148,WeatherCatV1.12B45,2013-04-05 13:01:00,
2013-04-05 09:06:00,42.1,30.4,29.61,NW,311,0.0,4.0,63,0.00,,,0.00,163,WeatherCatV1.12B45,2013-04-05 13:06:00,
2013-04-05 09:11:00,42.3,30.2,29.62,WNW,302,0.0,4.0,62,0.00,,,0.00,185,WeatherCatV1.12B45,2013-04-05 13:11:00,
2013-04-05 09:16:00,42.6,30.5,29.63,ENE,69,1.0,1.0,62,0.00,,,0.00,181,WeatherCatV1.12B45,2013-04-05 13:16:00,
2013-04-05 09:21:00,42.9,30.4,29.62,West,281,0.0,4.0,61,0.00,,,0.00,142,WeatherCatV1.12B45,2013-04-05 13:21:00,
2013-04-05 09:26:00,43.1,30.6,29.62,North,350,2.0,3.0,61,0.00,,,0.00,156,WeatherCatV1.12B45,2013-04-05 13:26:00,
2013-04-05 09:31:00,43.4,30.5,29.62,WNW,291,0.0,0.0,60,0.00,,,0.00,127,WeatherCatV1.12B45,2013-04-05 13:31:00,
2013-04-05 09:36:00,43.6,30.6,29.62,NW,326,3.0,6.0,60,0.00,,,0.00,155,WeatherCatV1.12B45,2013-04-05 13:36:00,
2013-04-05 09:41:00,43.7,30.3,29.61,SW,219,0.0,1.0,59,0.00,,,0.00,156,WeatherCatV1.12B45,2013-04-05 13:41:00,
2013-04-05 09:46:00,43.9,30.5,29.61,NW,321,1.0,1.0,59,0.00,,,0.00,171,WeatherCatV1.12B45,2013-04-05 13:46:00,
2013-04-05 09:51:00,44.1,30.7,29.61,NW,311,0.0,3.0,59,0.00,,,0.00,169,WeatherCatV1.12B45,2013-04-05 13:51:00,
2013-04-05 09:56:00,44.2,30.4,29.60,WNW,300,0.0,1.0,58,0.00,,,0.00,186,WeatherCatV1.12B45,2013-04-05 13:56:00,
2013-04-05 10:01:00,44.4,30.1,29.60,SSE,168,1.0,3.0,57,0.00,,,0.00,373,WeatherCatV1.12B45,2013-04-05 14:01:00,
2013-04-05 10:06:00,44.8,30.1,29.60,WNW,300,0.0,3.0,56,0.00,,,0.00,232,WeatherCatV1.12B45,2013-04-05 14:06:00,
2013-04-05 10:11:00,45.0,30.3,29.60,NW,313,0.0,3.0,56,0.00,,,0.00,176,WeatherCatV1.12B45,2013-04-05 14:11:00,
2013-04-05 10:16:00,44.7,29.5,29.60,South,180,4.0,5.0,55,0.00,,,0.00,230,WeatherCatV1.12B45,2013-04-05 14:16:00,
2013-04-05 10:21:00,45.0,29.8,29.59,NW,307,1.0,1.0,55,0.00,,,0.00,311,WeatherCatV1.12B45,2013-04-05 14:21:00,
2013-04-05 10:26:00,45.6,29.9,29.59,NW,313,1.0,5.0,54,0.00,,,0.00,265,WeatherCatV1.12B45,2013-04-05 14:26:00,
2013-04-05 10:31:00,45.6,29.5,29.59,West,265,0.0,5.0,53,0.00,,,0.00,269,WeatherCatV1.12B45,2013-04-05 14:31:00,
2013-04-05 10:36:00,46.4,29.7,29.58,NW,318,0.0,2.0,52,0.00,,,0.00,446,WeatherCatV1.12B45,2013-04-05 14:36:00,
2013-04-05 10:41:00,47.1,30.9,29.58,SSE,148,0.0,4.0,53,0.00,,,0.00,454,WeatherCatV1.12B45,2013-04-05 14:41:00,
2013-04-05 10:46:00,46.9,29.2,29.58,South,177,0.0,9.0,50,0.00,,,0.00,346,WeatherCatV1.12B45,2013-04-05 14:46:00,
2013-04-05 10:51:00,46.7,30.0,29.58,NNW,330,0.0,5.0,52,0.00,,,0.00,348,WeatherCatV1.12B45,2013-04-05 14:51:00,
2013-04-05 10:56:00,47.7,30.9,29.58,SE,136,1.0,3.0,52,0.00,,,0.00,563,WeatherCatV1.12B45,2013-04-05 14:56:00,
2013-04-05 11:01:00,48.2,29.9,29.57,NW,304,0.0,5.0,49,0.00,,,0.00,206,WeatherCatV1.12B45,2013-04-05 15:01:00,
2013-04-05 11:06:00,47.7,29.5,29.57,SSE,156,3.0,4.0,49,0.00,,,0.00,267,WeatherCatV1.12B45,2013-04-05 15:06:00,
2013-04-05 11:11:00,47.6,29.9,29.57,NNW,331,0.0,1.0,50,0.00,,,0.00,323,WeatherCatV1.12B45,2013-04-05 15:11:00,
2013-04-05 11:16:00,48.1,29.9,29.56,SSE,159,0.0,3.0,49,0.00,,,0.00,169,WeatherCatV1.12B45,2013-04-05 15:16:00,
2013-04-05 11:21:00,47.4,29.2,29.56,South,186,0.0,3.0,49,0.00,,,0.00,167,WeatherCatV1.12B45,2013-04-05 15:21:00,
2013-04-05 11:26:00,47.5,29.3,29.56,South,173,3.0,5.0,49,0.00,,,0.00,243,WeatherCatV1.12B45,2013-04-05 15:26:00,
2013-04-05 11:31:00,47.5,29.3,29.56,SE,142,0.0,5.0,49,0.00,,,0.00,239,WeatherCatV1.12B45,2013-04-05 15:31:00,
2013-04-05 11:36:00,47.4,29.2,29.56,SSE,150,2.0,5.0,49,0.00,,,0.00,262,WeatherCatV1.12B45,2013-04-05 15:36:00,
2013-04-05 11:41:00,47.8,30.1,29.56,SE,141,2.0,6.0,50,0.00,,,0.00,246,WeatherCatV1.12B45,2013-04-05 15:41:00,
2013-04-05 11:46:00,47.7,30.5,29.55,SSE,161,2.0,2.0,51,0.00,,,0.00,262,WeatherCatV1.12B45,2013-04-05 15:46:00,
2013-04-05 11:51:00,48.0,30.3,29.55,SSE,161,1.0,3.0,50,0.00,,,0.00,239,WeatherCatV1.12B45,2013-04-05 15:51:00,
2013-04-05 11:56:00,48.5,30.7,29.55,WSW,244,1.0,1.0,50,0.00,,,0.00,315,WeatherCatV1.12B45,2013-04-05 15:56:00,
2013-04-05 12:01:00,49.0,31.7,29.54,South,173,1.0,3.0,51,0.00,,,0.00,281,WeatherCatV1.12B45,2013-04-05 16:01:00,
2013-04-05 12:06:00,48.6,30.3,29.54,SSE,148,0.0,3.0,49,0.00,,,0.00,258,WeatherCatV1.12B45,2013-04-05 16:06:00,
2013-04-05 12:11:00,48.8,30.5,29.54,WNW,295,1.0,4.0,49,0.00,,,0.00,209,WeatherCatV1.12B45,2013-04-05 16:11:00,
2013-04-05 12:16:00,49.0,30.7,29.54,NNW,327,2.0,4.0,49,0.00,,,0.00,271,WeatherCatV1.12B45,2013-04-05 16:16:00,
2013-04-05 12:21:00,49.6,30.7,29.53,NW,314,0.0,4.0,48,0.00,,,0.00,255,WeatherCatV1.12B45,2013-04-05 16:21:00,
2013-04-05 12:26:00,49.4,31.0,29.53,WSW,248,1.0,3.0,49,0.00,,,0.00,279,WeatherCatV1.12B45,2013-04-05 16:26:00,
2013-04-05 12:31:00,49.1,30.8,29.52,SSE,157,4.0,5.0,49,0.00,,,0.00,278,WeatherCatV1.12B45,2013-04-05 16:31:00,
2013-04-05 12:36:00,49.5,31.6,29.52,WNW,298,1.0,3.0,50,0.00,,,0.00,279,WeatherCatV1.12B45,2013-04-05 16:36:00,
2013-04-05 12:41:00,50.2,32.3,29.51,WNW,292,0.0,4.0,50,0.00,,,0.00,795,WeatherCatV1.12B45,2013-04-05 16:41:00,
2013-04-05 12:46:00,52.3,31.6,29.51,South,187,1.0,6.0,45,0.00,,,0.00,766,WeatherCatV1.12B45,2013-04-05 16:46:00,
2013-04-05 12:51:00,52.1,32.0,29.50,SE,144,0.0,2.0,46,0.00,,,0.00,469,WeatherCatV1.12B45,2013-04-05 16:51:00,
2013-04-05 12:56:00,51.8,31.7,29.50,SSE,160,3.0,4.0,46,0.00,,,0.00,459,WeatherCatV1.12B45,2013-04-05 16:56:00,
2013-04-05 13:01:00,51.7,31.1,29.49,SSE,159,1.0,3.0,45,0.00,,,0.00,469,WeatherCatV1.12B45,2013-04-05 17:01:00,
2013-04-05 13:06:00,53.0,32.2,29.49,NNW,337,1.0,4.0,45,0.00,,,0.00,902,WeatherCatV1.12B45,2013-04-05 17:06:00,
2013-04-05 13:11:00,52.7,30.3,29.48,WNW,291,1.0,5.0,42,0.00,,,0.00,707,WeatherCatV1.12B45,2013-04-05 17:11:00,
2013-04-05 13:16:00,53.6,31.7,29.48,WNW,291,0.0,1.0,43,0.00,,,0.00,466,WeatherCatV1.12B45,2013-04-05 17:16:00,
2013-04-05 13:21:00,54.5,30.7,29.48,South,175,0.0,3.0,40,0.00,,,0.00,726,WeatherCatV1.12B45,2013-04-05 17:21:00,
2013-04-05 13:26:00,54.2,29.8,29.48,SSE,152,1.0,6.0,39,0.00,,,0.00,466,WeatherCatV1.12B45,2013-04-05 17:26:00,
2013-04-05 13:31:00,54.9,32.2,29.47,NW,306,2.0,4.0,42,0.00,,,0.00,935,WeatherCatV1.12B45,2013-04-05 17:31:00,
2013-04-05 13:36:00,55.6,31.7,29.47,SSE,158,4.0,4.0,40,0.00,,,0.00,863,WeatherCatV1.12B45,2013-04-05 17:36:00,
2013-04-05 13:41:00,56.1,31.5,29.46,SSE,164,0.0,5.0,39,0.00,,,0.00,844,WeatherCatV1.12B45,2013-04-05 17:41:00,
2013-04-05 13:46:00,56.4,32.4,29.46,SSE,165,5.0,5.0,40,0.00,,,0.00,838,WeatherCatV1.12B45,2013-04-05 17:46:00,
2013-04-05 13:51:00,56.4,30.5,29.45,SSE,157,2.0,9.0,37,0.00,,,0.00,824,WeatherCatV1.12B45,2013-04-05 17:51:00,
2013-04-05 13:56:00,56.2,30.3,29.45,South,175,0.0,4.0,37,0.00,,,0.00,821,WeatherCatV1.12B45,2013-04-05 17:56:00,
2013-04-05 14:01:00,56.2,30.9,29.44,NNW,334,4.0,4.0,38,0.00,,,0.00,809,WeatherCatV1.12B45,2013-04-05 18:01:00,
2013-04-05 14:06:00,56.3,31.0,29.43,ESE,123,1.0,3.0,38,0.00,,,0.00,809,WeatherCatV1.12B45,2013-04-05 18:06:00,
2013-04-05 14:11:00,56.4,30.5,29.43,SSE,161,0.0,2.0,37,0.00,,,0.00,795,WeatherCatV1.12B45,2013-04-05 18:11:00,
2013-04-05 14:17:00,56.8,29.4,29.43,NW,322,2.0,3.0,35,0.00,,,0.00,788,WeatherCatV1.12B45,2013-04-05 18:17:00,
2013-04-05 14:21:00,57.0,28.9,29.42,NW,325,0.0,2.0,34,0.00,,,0.00,780,WeatherCatV1.12B45,2013-04-05 18:21:00,
2013-04-05 14:27:00,57.1,29.0,29.42,NW,318,1.0,4.0,34,0.00,,,0.00,777,WeatherCatV1.12B45,2013-04-05 18:27:00,
2013-04-05 14:32:00,57.5,29.4,29.42,SSE,159,3.0,4.0,34,0.00,,,0.00,763,WeatherCatV1.12B45,2013-04-05 18:32:00,
2013-04-05 14:37:00,57.7,29.5,29.41,NW,304,0.0,1.0,34,0.00,,,0.00,724,WeatherCatV1.12B45,2013-04-05 18:37:00,
2013-04-05 14:42:00,57.8,28.9,29.41,WNW,300,0.0,2.0,33,0.00,,,0.00,742,WeatherCatV1.12B45,2013-04-05 18:42:00,
2013-04-05 14:47:00,57.9,29.7,29.40,SW,223,1.0,3.0,34,0.00,,,0.00,735,WeatherCatV1.12B45,2013-04-05 18:47:00,
2013-04-05 14:52:00,57.9,29.0,29.40,WNW,296,0.0,4.0,33,0.00,,,0.00,62,WeatherCatV1.12B45,2013-04-05 18:52:00,
2013-04-05 14:57:00,57.9,28.2,29.39,NW,310,3.0,5.0,32,0.00,,,0.00,60,WeatherCatV1.12B45,2013-04-05 18:57:00,
2013-04-05 15:02:00,57.8,28.1,29.39,NW,310,0.0,4.0,32,0.00,,,0.00,58,WeatherCatV1.12B45,2013-04-05 19:02:00,
2013-04-05 15:07:00,57.7,28.0,29.39,WNW,290,1.0,2.0,32,0.00,,,0.00,56,WeatherCatV1.12B45,2013-04-05 19:07:00,
2013-04-05 15:12:00,57.7,27.3,29.39,NW,311,0.0,4.0,31,0.00,,,0.00,56,WeatherCatV1.12B45,2013-04-05 19:12:00,
2013-04-05 15:17:00,57.7,27.3,29.39,WNW,302,5.0,5.0,31,0.00,,,0.00,54,WeatherCatV1.12B45,2013-04-05 19:17:00,
2013-04-05 15:22:00,57.5,27.1,29.39,NW,317,0.0,9.0,31,0.00,,,0.00,54,WeatherCatV1.12B45,2013-04-05 19:22:00,
2013-04-05 15:27:00,57.5,27.9,29.39,NNW,336,0.0,3.0,32,0.00,,,0.00,54,WeatherCatV1.12B45,2013-04-05 19:27:00,
2013-04-05 15:32:00,57.4,27.0,29.38,WNW,300,2.0,6.0,31,0.00,,,0.00,53,WeatherCatV1.12B45,2013-04-05 19:32:00,
2013-04-05 15:37:00,57.3,27.7,29.38,NW,316,0.0,4.0,32,0.00,,,0.00,53,WeatherCatV1.12B45,2013-04-05 19:37:00,
2013-04-05 15:42:00,57.4,27.8,29.37,WNW,300,3.0,3.0,32,0.00,,,0.00,53,WeatherCatV1.12B45,2013-04-05 19:42:00,
2013-04-05 15:47:00,57.4,27.0,29.37,North,0,0.0,2.0,31,0.00,,,0.00,53,WeatherCatV1.12B45,2013-04-05 19:47:00,
2013-04-05 15:52:00,57.5,27.1,29.37,North,0,1.0,2.0,31,0.00,,,0.00,53,WeatherCatV1.12B45,2013-04-05 19:52:00,
2013-04-05 15:57:00,57.5,27.1,29.37,NW,308,3.0,3.0,31,0.00,,,0.00,53,WeatherCatV1.12B45,2013-04-05 19:57:00,
2013-04-05 16:02:00,57.6,26.4,29.36,NW,309,1.0,6.0,30,0.00,,,0.00,53,WeatherCatV1.12B45,2013-04-05 20:02:00,
2013-04-05 16:07:00,57.7,28.0,29.36,NW,309,0.0,3.0,32,0.00,,,0.00,51,WeatherCatV1.12B45,2013-04-05 20:07:00,
2013-04-05 16:12:00,57.8,27.4,29.36,SSW,211,0.0,2.0,31,0.00,,,0.00,53,WeatherCatV1.12B45,2013-04-05 20:12:00,
2013-04-05 16:17:00,57.8,26.6,29.36,SW,224,0.0,1.0,30,0.00,,,0.00,53,WeatherCatV1.12B45,2013-04-05 20:17:00,
2013-04-05 16:22:00,57.7,26.5,29.36,SSE,161,0.0,4.0,30,0.00,,,0.00,53,WeatherCatV1.12B45,2013-04-05 20:22:00,
2013-04-05 16:27:00,57.8,27.4,29.36,NNW,342,2.0,3.0,31,0.00,,,0.00,51,WeatherCatV1.12B45,2013-04-05 20:27:00,
2013-04-05 16:32:00,58.0,28.3,29.35,West,275,2.0,6.0,32,0.00,,,0.00,49,WeatherCatV1.12B45,2013-04-05 20:32:00,
2013-04-05 16:37:00,58.3,28.6,29.35,WNW,288,2.0,4.0,32,0.00,,,0.00,49,WeatherCatV1.12B45,2013-04-05 20:37:00,
2013-04-05 16:42:00,58.5,28.7,29.36,NW,304,1.0,3.0,32,0.00,,,0.00,47,WeatherCatV1.12B45,2013-04-05 20:42:00,
2013-04-05 16:47:00,58.6,28.8,29.36,West,260,0.0,3.0,32,0.00,,,0.00,46,WeatherCatV1.12B45,2013-04-05 20:47:00,
2013-04-05 16:52:00,58.8,28.2,29.36,WNW,296,0.0,5.0,31,0.00,,,0.00,44,WeatherCatV1.12B45,2013-04-05 20:52:00,
2013-04-05 16:57:00,59.0,28.4,29.36,SSE,153,1.0,4.0,31,0.00,,,0.00,44,WeatherCatV1.12B45,2013-04-05 20:57:00,
2013-04-05 17:02:00,59.0,27.6,29.36,North,355,2.0,7.0,30,0.00,,,0.00,42,WeatherCatV1.12B45,2013-04-05 21:02:00,
2013-04-05 17:07:00,58.9,27.5,29.36,West,261,1.0,6.0,30,0.00,,,0.00,42,WeatherCatV1.12B45,2013-04-05 21:07:00,
2013-04-05 17:12:00,58.8,27.4,29.36,WSW,248,1.0,2.0,30,0.00,,,0.00,40,WeatherCatV1.12B45,2013-04-05 21:12:00,
2013-04-05 17:17:00,58.7,27.4,29.36,WNW,291,4.0,9.0,30,0.00,,,0.00,40,WeatherCatV1.12B45,2013-04-05 21:17:00,
2013-04-05 17:22:00,58.6,27.3,29.37,WNW,292,0.0,7.0,30,0.00,,,0.00,40,WeatherCatV1.12B45,2013-04-05 21:22:00,
2013-04-05 17:27:00,58.6,27.3,29.37,WNW,284,0.0,6.0,30,0.00,,,0.00,39,WeatherCatV1.12B45,2013-04-05 21:27:00,
2013-04-05 17:32:00,58.4,27.9,29.37,WNW,302,3.0,5.0,31,0.00,,,0.00,39,WeatherCatV1.12B45,2013-04-05 21:32:00,
2013-04-05 17:37:00,58.3,27.8,29.37,WNW,286,3.0,6.0,31,0.00,,,0.00,37,WeatherCatV1.12B45,2013-04-05 21:37:00,
2013-04-05 17:42:00,58.2,27.7,29.38,WNW,300,1.0,9.0,31,0.00,,,0.00,37,WeatherCatV1.12B45,2013-04-05 21:42:00,
2013-04-05 17:47:00,58.0,27.5,29.38,NNW,343,1.0,4.0,31,0.00,,,0.00,35,WeatherCatV1.12B45,2013-04-05 21:47:00,
2013-04-05 17:52:00,57.7,27.3,29.38,West,281,4.0,4.0,31,0.00,,,0.00,33,WeatherCatV1.12B45,2013-04-05 21:52:00,
2013-04-05 17:57:00,57.5,27.9,29.38,NW,325,3.0,5.0,32,0.00,,,0.00,33,WeatherCatV1.12B45,2013-04-05 21:57:00,
2013-04-05 18:02:00,57.2,26.8,29.39,WNW,293,3.0,7.0,31,0.00,,,0.00,30,WeatherCatV1.12B45,2013-04-05 22:02:00,
2013-04-05 18:07:00,56.9,26.6,29.39,WNW,286,2.0,2.0,31,0.00,,,0.00,30,WeatherCatV1.12B45,2013-04-05 22:07:00,
2013-04-05 18:12:00,56.6,26.3,29.40,SE,136,2.0,6.0,31,0.00,,,0.00,28,WeatherCatV1.12B45,2013-04-05 22:12:00,
2013-04-05 18:17:00,56.3,26.1,29.40,WSW,245,2.0,4.0,31,0.00,,,0.00,26,WeatherCatV1.12B45,2013-04-05 22:17:00,
2013-04-05 18:22:00,56.0,25.8,29.40,West,263,1.0,3.0,31,0.00,,,0.00,25,WeatherCatV1.12B45,2013-04-05 22:22:00,
2013-04-05 18:27:00,55.8,26.4,29.41,SW,217,0.0,4.0,32,0.00,,,0.00,23,WeatherCatV1.12B45,2013-04-05 22:27:00,
2013-04-05 18:32:00,55.5,26.1,29.41,WNW,285,2.0,4.0,32,0.00,,,0.00,21,WeatherCatV1.12B45,2013-04-05 22:32:00,
2013-04-05 18:37:00,55.4,26.8,29.41,West,272,0.0,2.0,33,0.00,,,0.00,19,WeatherCatV1.12B45,2013-04-05 22:37:00,
2013-04-05 18:42:00,55.1,26.5,29.42,SW,214,1.0,6.0,33,0.00,,,0.00,16,WeatherCatV1.12B45,2013-04-05 22:42:00,
2013-04-05 18:47:00,54.8,26.3,29.42,WNW,300,0.0,2.0,33,0.00,,,0.00,14,WeatherCatV1.12B45,2013-04-05 22:47:00,
2013-04-05 18:52:00,54.4,25.9,29.42,West,277,1.0,6.0,33,0.00,,,0.00,12,WeatherCatV1.12B45,2013-04-05 22:52:00,
2013-04-05 18:57:00,54.2,25.7,29.43,NW,315,1.0,11.0,33,0.00,,,0.00,9,WeatherCatV1.12B45,2013-04-05 22:57:00,
2013-04-05 19:02:00,53.9,26.2,29.44,WNW,300,2.0,5.0,34,0.00,,,0.00,7,WeatherCatV1.12B45,2013-04-05 23:02:00,
2013-04-05 19:07:00,53.6,25.2,29.44,West,272,2.0,4.0,33,0.00,,,0.00,5,WeatherCatV1.12B45,2013-04-05 23:07:00,
2013-04-05 19:12:00,53.3,24.9,29.44,WSW,237,0.0,2.0,33,0.00,,,0.00,0,WeatherCatV1.12B45,2013-04-05 23:12:00,
2013-04-05 19:17:00,53.0,24.7,29.44,NW,306,0.0,2.0,33,0.00,,,0.00,0,WeatherCatV1.12B45,2013-04-05 23:17:00,
2013-04-05 19:22:00,52.8,25.2,29.44,NW,306,1.0,2.0,34,0.00,,,0.00,0,WeatherCatV1.12B45,2013-04-05 23:22:00,
2013-04-05 19:27:00,52.6,25.0,29.44,NNW,328,0.0,5.0,34,0.00,,,0.00,0,WeatherCatV1.12B45,2013-04-05 23:27:00,
2013-04-05 19:32:00,52.3,24.8,29.44,WNW,295,0.0,4.0,34,0.00,,,0.00,0,WeatherCatV1.12B45,2013-04-05 23:32:00,
2013-04-05 19:37:00,52.0,25.2,29.45,WNW,300,0.0,1.0,35,0.00,,,0.00,0,WeatherCatV1.12B45,2013-04-05 23:37:00,
2013-04-05 19:42:00,51.7,24.9,29.45,WNW,296,0.0,1.0,35,0.00,,,0.00,0,WeatherCatV1.12B45,2013-04-05 23:42:00,
2013-04-05 19:47:00,51.5,24.8,29.45,WNW,297,1.0,2.0,35,0.00,,,0.00,0,WeatherCatV1.12B45,2013-04-05 23:47:00,
2013-04-05 19:52:00,51.1,24.4,29.45,WNW,296,0.0,1.0,35,0.00,,,0.00,0,WeatherCatV1.12B45,2013-04-05 23:52:00,
2013-04-05 19:57:00,50.8,24.1,29.46,South,173,0.0,5.0,35,0.00,,,0.00,0,WeatherCatV1.12B45,2013-04-05 23:57:00,
2013-04-05 20:02:00,50.6,24.6,29.46,West,267,1.0,7.0,36,0.00,,,0.00,0,WeatherCatV1.12B45,2013-04-06 00:02:00,
2013-04-05 20:07:00,50.3,25.0,29.47,NW,317,1.0,9.0,37,0.00,,,0.00,0,WeatherCatV1.12B45,2013-04-06 00:07:00,
2013-04-05 20:12:00,50.2,25.6,29.47,WNW,295,0.0,3.0,38,0.00,,,0.00,0,WeatherCatV1.12B45,2013-04-06 00:12:00,
2013-04-05 20:17:00,50.0,26.0,29.48,WSW,254,1.0,6.0,39,0.00,,,0.00,0,WeatherCatV1.12B45,2013-04-06 00:17:00,
2013-04-05 20:22:00,49.8,26.5,29.48,NW,306,2.0,9.0,40,0.00,,,0.00,0,WeatherCatV1.12B45,2013-04-06 00:22:00,
2013-04-05 20:27:00,49.6,26.9,29.49,WNW,296,1.0,10.0,41,0.00,,,0.00,0,WeatherCatV1.12B45,2013-04-06 00:27:00,
2013-04-05 20:32:00,49.3,26.6,29.50,WNW,283,1.0,4.0,41,0.00,,,0.00,0,WeatherCatV1.12B45,2013-04-06 00:32:00,
2013-04-05 20:37:00,49.1,27.0,29.50,WNW,302,4.0,11.0,42,0.00,,,0.00,0,WeatherCatV1.12B45,2013-04-06 00:37:00,
2013-04-05 20:42:00,48.8,26.7,29.50,WNW,286,0.0,4.0,42,0.00,,,0.00,0,WeatherCatV1.12B45,2013-04-06 00:42:00,
2013-04-05 20:47:00,48.6,26.6,29.51,NW,325,2.0,5.0,42,0.00,,,0.00,0,WeatherCatV1.12B45,2013-04-06 00:47:00,
2013-04-05 20:52:00,48.3,26.3,29.52,NW,307,0.0,2.0,42,0.00,,,0.00,0,WeatherCatV1.12B45,2013-04-06 00:52:00,
2013-04-05 20:57:00,48.0,25.4,29.52,WNW,301,6.0,10.0,41,0.00,,,0.00,0,WeatherCatV1.12B45,2013-04-06 00:57:00,
2013-04-05 21:02:00,47.7,25.2,29.52,West,281,5.0,18.0,41,0.00,,,0.00,0,WeatherCatV1.12B45,2013-04-06 01:02:00,
2013-04-05 21:07:00,47.3,25.4,29.53,NW,309,7.0,11.0,42,0.00,,,0.00,0,WeatherCatV1.12B45,2013-04-06 01:07:00,
2013-04-05 21:12:00,47.1,25.2,29.53,WNW,295,3.0,12.0,42,0.00,,,0.00,0,WeatherCatV1.12B45,2013-04-06 01:12:00,
2013-04-05 21:17:00,46.9,25.6,29.53,NW,311,1.0,3.0,43,0.00,,,0.00,0,WeatherCatV1.12B45,2013-04-06 01:17:00,
2013-04-05 21:22:00,46.6,25.3,29.54,SE,145,1.0,6.0,43,0.00,,,0.00,0,WeatherCatV1.12B45,2013-04-06 01:22:00,
2013-04-05 21:27:00,46.3,25.6,29.54,NW,308,0.0,10.0,44,0.00,,,0.00,0,WeatherCatV1.12B45,2013-04-06 01:27:00,
2013-04-05 21:32:00,46.1,25.4,29.54,NW,307,5.0,10.0,44,0.00,,,0.00,0,WeatherCatV1.12B45,2013-04-06 01:32:00,
2013-04-05 21:37:00,45.9,25.8,29.55,West,271,1.0,4.0,45,0.00,,,0.00,0,WeatherCatV1.12B45,2013-04-06 01:37:00,
2013-04-05 21:42:00,45.7,25.6,29.55,WNW,295,0.0,3.0,45,0.00,,,0.00,0,WeatherCatV1.12B45,2013-04-06 01:42:00,
2013-04-05 21:47:00,45.5,25.9,29.55,WNW,300,7.0,7.0,46,0.00,,,0.00,0,WeatherCatV1.12B45,2013-04-06 01:47:00,
2013-04-05 21:52:00,45.2,26.2,29.56,WNW,293,1.0,2.0,47,0.00,,,0.00,0,WeatherCatV1.12B45,2013-04-06 01:52:00,
2013-04-05 21:57:00,45.0,26.5,29.56,West,273,1.0,11.0,48,0.00,,,0.00,0,WeatherCatV1.12B45,2013-04-06 01:57:00,
2013-04-05 22:02:00,44.6,26.6,29.56,WNW,290,1.0,9.0,49,0.00,,,0.00,0,WeatherCatV1.12B45,2013-04-06 02:02:00,
2013-04-05 22:07:00,44.2,26.8,29.56,WNW,299,4.0,8.0,50,0.00,,,0.00,0,WeatherCatV1.12B45,2013-04-06 02:07:00,
2013-04-05 22:12:00,43.8,26.9,29.57,West,274,4.0,11.0,51,0.00,,,0.00,0,WeatherCatV1.12B45,2013-04-06 02:12:00,
2013-04-05 22:17:00,43.5,27.1,29.57,NW,314,11.0,11.0,52,0.00,,,0.00,0,WeatherCatV1.12B45,2013-04-06 02:17:00,
2013-04-05 22:22:00,43.2,26.8,29.57,NW,311,2.0,12.0,52,0.00,,,0.00,0,WeatherCatV1.12B45,2013-04-06 02:22:00,
2013-04-05 22:27:00,42.9,27.0,29.57,WNW,291,4.0,4.0,53,0.00,,,0.00,0,WeatherCatV1.12B45,2013-04-06 02:27:00,
2013-04-05 22:32:00,42.6,26.7,29.58,WNW,303,7.0,7.0,53,0.00,,,0.00,0,WeatherCatV1.12B45,2013-04-06 02:32:00,
2013-04-05 22:37:00,42.3,26.9,29.58,WNW,294,1.0,9.0,54,0.00,,,0.00,0,WeatherCatV1.12B45,2013-04-06 02:37:00,
2013-04-05 22:42:00,42.0,26.6,29.58,WNW,298,4.0,5.0,54,0.00,,,0.00,0,WeatherCatV1.12B45,2013-04-06 02:42:00,
2013-04-05 22:47:00,41.8,26.4,29.58,WNW,302,0.0,9.0,54,0.00,,,0.00,0,WeatherCatV1.12B45,2013-04-06 02:47:00,
2013-04-05 22:52:00,41.5,26.1,29.58,West,259,2.0,7.0,54,0.00,,,0.00,0,WeatherCatV1.12B45,2013-04-06 02:52:00,
2013-04-05 22:57:00,41.3,25.9,29.59,NW,304,12.0,12.0,54,0.00,,,0.00,0,WeatherCatV1.12B45,2013-04-06 02:57:00,
2013-04-05 23:02:00,41.1,26.2,29.59,WSW,254,1.0,5.0,55,0.00,,,0.00,0,WeatherCatV1.12B45,2013-04-06 03:02:00,
2013-04-05 23:07:00,40.9,26.0,29.59,SSE,158,1.0,4.0,55,0.00,,,0.00,0,WeatherCatV1.12B45,2013-04-06 03:07:00,
2013-04-05 23:12:00,40.6,25.7,29.59,WNW,300,0.0,11.0,55,0.00,,,0.00,0,WeatherCatV1.12B45,2013-04-06 03:12:00,
2013-04-05 23:17:00,40.4,26.0,29.59,WNW,288,0.0,10.0,56,0.00,,,0.00,0,WeatherCatV1.12B45,2013-04-06 03:17:00,
2013-04-05 23:22:00,40.2,25.8,29.59,SSW,195,0.0,2.0,56,0.00,,,0.00,0,WeatherCatV1.12B45,2013-04-06 03:22:00,
2013-04-05 23:27:00,40.1,26.1,29.59,WNW,298,0.0,1.0,57,0.00,,,0.00,0,WeatherCatV1.12B45,2013-04-06 03:27:00,
2013-04-05 23:32:00,39.8,25.8,29.60,NW,307,0.0,5.0,57,0.00,,,0.00,0,WeatherCatV1.12B45,2013-04-06 03:32:00,
2013-04-05 23:37:00,39.7,26.1,29.60,WSW,257,2.0,2.0,58,0.00,,,0.00,0,WeatherCatV1.12B45,2013-04-06 03:37:00,
2013-04-05 23:42:00,39.6,26.1,29.60,WNW,301,0.0,5.0,58,0.00,,,0.00,0,WeatherCatV1.12B45,2013-04-06 03:42:00,
2013-04-05 23:47:00,39.5,26.0,29.60,WNW,295,0.0,2.0,58,0.00,,,0.00,0,WeatherCatV1.12B45,2013-04-06 03:47:00,
2013-04-05 23:52:00,39.4,25.9,29.60,SW,225,0.0,2.0,58,0.00,,,0.00,0,WeatherCatV1.12B45,2013-04-06 03:52:00,
2013-04-05 23:57:00,39.2,26.1,29.61,NW,309,0.0,2.0,59,0.00,,,0.00,0,WeatherCatV1.12B45,2013-04-06 03:57:00,